Location: Gudip?du
(17.0263°N, 80.8301°E)
Time: 07:53:36
(UTC+00:00)

Cosmos 1703 - Pass Details

Date: 03 August 2024
Orbit: 478 x 491 km, 82.5° (Epoch: 10 September)

Event Time Altitude Azimuth Distance (km) Brightness Sun altitude
Rises 22:51:29 0° 353° (N) 2,575 7.0 -19.9°
Reaches altitude 10° 22:53:36 10° 352° (N) 1,688 6.0 -19.4°
Maximum altitude 22:57:17 77° 266° (W) 507 2.9 -18.6°
Enters shadow 22:59:23 24° 183° (S) 1,050 4.5 -18.2°
